TimeAKDT,TemperatureF,Dew PointF,Humidity,Sea Level PressureIn,VisibilityMPH,Wind Direction,Wind SpeedMPH,Gust SpeedMPH,PrecipitationIn,Events,Conditions,WindDirDegrees,DateUTC
12:16 AM,1.4,-4.0,78,30.08,10.0,SSW,12.7,-,N/A,,Overcast,210,2013-03-24 08:16:00
12:36 AM,1.4,-0.4,92,30.07,10.0,SW,11.5,-,N/A,,Overcast,230,2013-03-24 08:36:00
12:56 AM,1.4,-7.6,66,30.07,7.0,SW,11.5,-,N/A,,Overcast,230,2013-03-24 08:56:00
1:16 AM,1.4,-2.2,85,30.07,3.0,SW,15.0,-,N/A,,Overcast,220,2013-03-24 09:16:00
1:36 AM,1.4,-2.2,85,30.06,9.0,West,13.8,-,N/A,,Overcast,280,2013-03-24 09:36:00
1:56 AM,1.4,-7.6,66,30.06,10.0,West,13.8,-,N/A,,Overcast,280,2013-03-24 09:56:00
2:16 AM,1.4,-5.8,72,30.06,10.0,West,11.5,-,N/A,,Overcast,280,2013-03-24 10:16:00
2:36 AM,1.4,-5.8,72,30.06,10.0,West,9.2,-,N/A,,Overcast,260,2013-03-24 10:36:00
2:56 AM,1.4,-5.8,72,30.06,10.0,WNW,10.4,-,N/A,,Overcast,290,2013-03-24 10:56:00
3:16 AM,1.4,-7.6,66,30.06,10.0,West,10.4,-,N/A,,Scattered Clouds,280,2013-03-24 11:16:00
3:36 AM,1.4,-4.0,78,30.06,10.0,West,11.5,-,N/A,,Partly Cloudy,280,2013-03-24 11:36:00
3:56 AM,1.4,-7.6,66,30.06,10.0,West,10.4,-,N/A,,Mostly Cloudy,280,2013-03-24 11:56:00
4:16 AM,1.4,-5.8,72,30.06,10.0,West,10.4,-,N/A,,Overcast,280,2013-03-24 12:16:00
4:36 AM,1.4,-5.8,72,30.06,10.0,West,11.5,-,N/A,,Mostly Cloudy,270,2013-03-24 12:36:00
4:56 AM,-0.4,-7.6,72,30.06,10.0,West,10.4,-,N/A,,Mostly Cloudy,270,2013-03-24 12:56:00
5:16 AM,1.4,-4.0,78,30.06,9.0,WNW,9.2,-,N/A,,Mostly Cloudy,300,2013-03-24 13:16:00
5:36 AM,-0.4,-7.6,72,30.06,10.0,WNW,11.5,-,N/A,,Mostly Cloudy,300,2013-03-24 13:36:00
5:56 AM,-0.4,-5.8,78,30.06,10.0,NW,11.5,-,N/A,,Overcast,320,2013-03-24 13:56:00
6:16 AM,-2.2,-7.6,78,30.06,10.0,NW,10.4,-,N/A,,Mostly Cloudy,320,2013-03-24 14:16:00
6:36 AM,-2.2,-7.6,78,30.06,10.0,North,8.1,-,N/A,,Partly Cloudy,350,2013-03-24 14:36:00
6:56 AM,-5.8,-9.4,84,30.06,10.0,NNW,6.9,-,N/A,,Clear,340,2013-03-24 14:56:00
7:16 AM,-4.0,-7.6,85,30.06,10.0,NW,8.1,-,N/A,,Clear,320,2013-03-24 15:16:00
7:36 AM,-4.0,-7.6,85,30.07,10.0,NNW,4.6,-,N/A,,Mostly Cloudy,340,2013-03-24 15:36:00
7:56 AM,-5.8,-11.2,77,30.07,10.0,NW,10.4,-,N/A,,Overcast,320,2013-03-24 15:56:00
8:16 AM,-5.8,-5.8,100,30.07,10.0,NW,10.4,-,N/A,,Overcast,320,2013-03-24 16:16:00
8:36 AM,-5.8,-16.6,60,30.07,10.0,NNW,8.1,-,N/A,,Scattered Clouds,330,2013-03-24 16:36:00
8:56 AM,-5.8,-7.6,92,30.06,10.0,NW,9.2,-,N/A,,Scattered Clouds,320,2013-03-24 16:56:00
9:16 AM,-5.8,-14.8,65,30.06,10.0,NNW,9.2,-,N/A,,Mostly Cloudy,330,2013-03-24 17:16:00
9:36 AM,-5.8,-11.2,77,30.07,10.0,NNW,9.2,-,N/A,,Mostly Cloudy,330,2013-03-24 17:36:00
9:56 AM,-7.6,-7.6,100,30.06,10.0,NNW,9.2,-,N/A,,Overcast,330,2013-03-24 17:56:00
10:16 AM,-7.6,-16.6,65,30.07,10.0,NNW,8.1,-,N/A,,Overcast,340,2013-03-24 18:16:00
10:36 AM,-5.8,-5.8,100,30.07,10.0,NNW,10.4,-,N/A,,Overcast,330,2013-03-24 18:36:00
10:56 AM,-5.8,-14.8,65,30.07,10.0,NNW,10.4,-,N/A,,Mostly Cloudy,340,2013-03-24 18:56:00
11:16 AM,-5.8,-9.4,84,30.07,10.0,NNW,10.4,-,N/A,,Partly Cloudy,340,2013-03-24 19:16:00
11:36 AM,-5.8,-13.0,71,30.08,10.0,North,8.1,-,N/A,,Mostly Cloudy,350,2013-03-24 19:36:00
11:56 AM,-5.8,-7.6,92,30.07,10.0,NNW,9.2,-,N/A,,Scattered Clouds,330,2013-03-24 19:56:00
12:16 PM,-5.8,-11.2,77,30.07,10.0,NNW,10.4,-,N/A,,Clear,330,2013-03-24 20:16:00
12:36 PM,-4.0,-11.2,71,30.07,10.0,NNW,11.5,-,N/A,,Clear,330,2013-03-24 20:36:00
12:56 PM,-4.0,-7.6,85,30.07,10.0,NW,10.4,-,N/A,,Clear,320,2013-03-24 20:56:00
1:16 PM,-4.0,-9.4,78,30.07,10.0,NW,11.5,-,N/A,,Clear,320,2013-03-24 21:16:00
1:36 PM,-2.2,-9.4,71,30.07,10.0,NNW,11.5,-,N/A,,Clear,330,2013-03-24 21:36:00
1:56 PM,-2.2,-11.2,66,30.07,10.0,NNW,12.7,-,N/A,,Clear,330,2013-03-24 21:56:00
2:16 PM,-4.0,-11.2,71,30.07,10.0,NNW,12.7,-,N/A,,Clear,330,2013-03-24 22:16:00
2:36 PM,-2.2,-9.4,71,30.06,10.0,NNW,13.8,-,N/A,,Clear,330,2013-03-24 22:36:00
2:56 PM,-2.2,-11.2,66,30.06,10.0,NNW,13.8,-,N/A,,Clear,330,2013-03-24 22:56:00
3:16 PM,-2.2,-11.2,66,30.06,10.0,NNW,13.8,-,N/A,,Clear,330,2013-03-24 23:16:00
3:36 PM,-2.2,-11.2,66,30.06,10.0,NW,13.8,-,N/A,,Clear,320,2013-03-24 23:36:00
3:56 PM,-4.0,-11.2,71,30.06,10.0,NNW,15.0,-,N/A,,Clear,330,2013-03-24 23:56:00
4:16 PM,-4.0,-11.2,71,30.06,10.0,NW,13.8,-,N/A,,Clear,320,2013-03-25 00:16:00
4:36 PM,-4.0,-11.2,71,30.05,10.0,NNW,12.7,-,N/A,,Clear,330,2013-03-25 00:36:00
4:56 PM,-4.0,-13.0,65,30.05,10.0,NNW,16.1,-,N/A,,Clear,330,2013-03-25 00:56:00
5:16 PM,-4.0,-11.2,71,30.05,10.0,NNW,17.3,-,N/A,,Clear,330,2013-03-25 01:16:00
5:36 PM,-4.0,-11.2,71,30.04,10.0,NNW,16.1,-,N/A,,Clear,330,2013-03-25 01:36:00
5:56 PM,-4.0,-14.8,60,30.04,10.0,NW,16.1,-,N/A,,Clear,320,2013-03-25 01:56:00
6:16 PM,-4.0,-11.2,71,30.04,10.0,NNW,16.1,-,N/A,,Clear,330,2013-03-25 02:16:00
6:36 PM,-2.2,-14.8,55,30.03,10.0,NW,19.6,-,N/A,,Clear,320,2013-03-25 02:36:00
6:56 PM,-2.2,-11.2,66,30.03,10.0,NW,18.4,-,N/A,,Clear,320,2013-03-25 02:56:00
7:16 PM,-4.0,-14.8,60,30.03,10.0,NW,16.1,-,N/A,,Clear,320,2013-03-25 03:16:00
7:36 PM,-4.0,-13.0,65,30.03,10.0,NNW,16.1,-,N/A,,Clear,330,2013-03-25 03:36:00
7:56 PM,-5.8,-14.8,65,30.03,10.0,NNW,16.1,-,N/A,,Clear,330,2013-03-25 03:56:00
8:16 PM,-5.8,-14.8,65,30.03,10.0,NNW,15.0,-,N/A,,Clear,340,2013-03-25 04:16:00
8:36 PM,-5.8,-14.8,65,30.03,10.0,North,12.7,-,N/A,,Clear,350,2013-03-25 04:36:00
8:56 PM,-7.6,-16.6,65,30.03,10.0,North,11.5,-,N/A,,Clear,350,2013-03-25 04:56:00
9:16 PM,-7.6,-16.6,65,30.03,10.0,NNW,12.7,-,N/A,,Clear,340,2013-03-25 05:16:00
9:36 PM,-7.6,-16.6,65,30.02,10.0,NNW,12.7,-,N/A,,Clear,340,2013-03-25 05:36:00
9:56 PM,-7.6,-16.6,65,30.02,10.0,NNW,13.8,-,N/A,,Scattered Clouds,340,2013-03-25 05:56:00
10:16 PM,-7.6,-14.8,71,30.02,10.0,NNW,12.7,-,N/A,,Scattered Clouds,340,2013-03-25 06:16:00
10:36 PM,-9.4,-18.4,65,30.02,10.0,North,12.7,-,N/A,,Mostly Cloudy,350,2013-03-25 06:36:00
10:56 PM,-9.4,-14.8,77,30.02,10.0,NNW,11.5,-,N/A,,Mostly Cloudy,340,2013-03-25 06:56:00
11:16 PM,-9.4,-16.6,71,30.02,10.0,NNW,12.7,-,N/A,,Scattered Clouds,340,2013-03-25 07:16:00
11:36 PM,-9.4,-18.4,65,30.01,10.0,NNW,11.5,-,N/A,,Scattered Clouds,340,2013-03-25 07:36:00
11:56 PM,-9.4,-16.6,71,30.01,10.0,North,8.1,-,N/A,,Partly Cloudy,10,2013-03-25 07:56:00